STARLINK-3052, 49165

Orbit data source: Space-Track

STARLINK-3052, 49165 is a payload satellite owned by SpaceX/Seattle (US) in LEO that was launched on Tue, 14 Sep 2021 UTC via an FALCON 9 launch vehicle from the Air Force Western Test Range (AFWTR). Payload-class satellites include a variety of spacecraft equipped with specific instruments for various scientific and technological missions. These include communications satellites like Starlink; space stations such as the ISS; scientific satellites like the Hubble; Earth observation satellites from companies like Planet Labs, Umbra, and HawkEye 360; GPS; miniature CubeSats for education and research; and military/defense satellites.

Loading next visibility...
Identifier
49165, 2021-082AM
Orbit
LEO
Last TLE update
12 hours ago
Origin
Manufacturer
SpaceX/Seattle
Mission
Operational Commercial Communications
Bus & Motor
STARLINK, Unknown motor
Mass
297 kg wet, ~275 kg dry
Launch date (UTC)
2021-09-14 (4 years ago)
Launch vehicle
FALCON 9
Launch site
Air Force Western Test Range (AFWTR)
Object type
Payload
Rocket body
Debris
Shape & HBR
Box + 1 Pan, 8.86 m
Radar Cross Section
13.562 m², Large (>1 m²)

Expand to show TLE details & history

TLE from 12 hours ago
0 STARLINK-3052
1 49165U 21082AM  25183.78966831 -.00000322  00000-0 -19160-4 0  9995
2 49165  69.9994 204.5532 0004204 266.7023  93.3656 14.98327133209745
Epoch: 2025-07-02T18:57Z
TLE epoch observation values (Epoch: 2025-07-02T18:57:07.341Z)
Latitude
0.00003°
Longitude
-0.7931°
Altitude
574.661 km
Speed
7.574 km/s
True Right ascension
13h 38m 12s
True Declination
0° 00' 00"
Sunlit
Object was in daylight at epoch
Visualization orbit readout
Latitude
64.30656°
Longitude
129.18103°
Altitude
585.266 km
Speed
7.573 km/s
Apparent Right ascension
03h 52m 42s
Apparent Declination
27° 26' 16"
Sunlit
Object is in daylight
Visualization observer readout
Local Sidereal Time
18:24:14
Azimuth
34.167° NE
Elevation
-13.981°
Doppler factor
1
Orbital elements
Apogee altitude
572.934 km
Perigee altitude
567.092 km
Semi-major axis
6,948.15 km
Eccentricity
0.00042
Inclination
69.9994°
RAAN
204.5532°
Arg. of periapsis
266.7023°
True anomaly
Unknown
Mean anomaly
93.3656°
Eccentric anomaly
Unknown
Mean motion
3.74748 °/min
Orbital period
96.06 mins
BSTAR
-0.00001916
Loading maneuver chart data...
Loading SW <> Apogee altitude chart data...
Loading historical data...
Loading historical data...
Loading historical data...
Loading historical data...
Loading historical data...
Loading historical data...
Loading historical data...

STARLINK-3052 Visibility forecast

Observer location: undefined°, undefined°

Span
Click to sort rows by Start time (UTC) header in descending order
Start Az.
Max El. time (UTC)
Max El. Az.
Max El.
End time (UTC)
End Az.
6 mins2025-07-03 11:30:31.821Z7.062° NNE2025-07-03 11:33:31.821Z55.994° ENE20.176°2025-07-03 11:36:31.821Z104.668° ESE
6 mins2025-07-03 13:09:31.821Z303.826° NW2025-07-03 13:11:31.821Z262.657° W27.833°2025-07-03 13:15:31.821Z189.374° SSW
6 mins2025-07-04 03:09:31.821Z234.35° WSW2025-07-04 03:11:31.821Z282.493° WNW35.56°2025-07-04 03:15:31.821Z11.198° NNE
|